Back to catalog

SCOUT G-1 DEB

LostPO
NORAD 35527·DEBRIS·🇺🇸 United States

Launched Aug 25, 1988 from Vandenberg Space Force Base

Loading…

Next Passes (next 24 hours)

TLE

StaleSource: Space-Track

Epoch: Aug 28, 2023, 09:27 UTC

1 35527U 88074Q   23240.39433855  .00009937  00000-0  59770-2 0  9998
2 35527  89.8307 295.9084 0020509 306.4702  53.4591 14.06594836855623

Track SCOUT G-1 DEB in real time with AllMySat

Download on the App Store